{"data":{"norad_id":62275,"epoch":"2026-05-25T04:05:54.109824Z","epoch_age_seconds":56417,"freshness":"FRESH","line1":"1 62275U 24237J   26145.17076516  .00254648  00000+0  19225-2 0  9990","line2":"2 62275  43.0013 316.2400 0001886  28.6444 331.4527 15.70906099 85028","mean_motion":15.70906099,"eccentricity":0.0001886,"inclination_deg":43.0013,"raan_deg":316.24,"arg_perigee_deg":28.6444,"mean_anomaly_deg":331.4527,"bstar":0.0019225,"rev_number":8502,"period_min":91.666841252744,"perigee_km":355.03602890327,"apogee_km":357.57626085752,"semimajor_km":6734.4431448804,"source":"CELESTRAK","updated_at":"2026-05-25T13:38:19.643483Z"}}